Theta_e
312 312 313 313 313 312 311 311 309 309 307 307 309 309 307 308 307 307 308 308 307 307 306 306 306 306 306 306 305 304 303 302 301 303 311 312 312 312 312 311 311 311 311
309 309 310 311 311 311 311 311 309 309 307 308 309 308 308 308 307 308 308 307 307 306 306 305 306 306 306 306 304 304 303 302 302 300 305 312 312 312 312 312 311 311 311
308 308 308 309 310 311 311 310 310 309 307 308 309 307 308 307 308 308 308 307 306 305 305 305 305 306 306 306 305 304 303 302 302 301 301 305 308 306 310 310 311 311 310
308 308 308 309 309 311 311 310 310 308 307 308 308 307 308 307 308 308 307 306 305 304 304 304 305 305 305 305 305 304 304 302 302 302 301 300 300 305 307 308 308 307 303
308 307 308 308 309 311 311 311 310 308 308 308 307 308 307 307 307 307 307 306 306 305 304 304 304 304 305 305 305 304 304 303 303 302 301 301 302 302 305 305 305 303 302
308 307 308 308 309 311 311 311 310 309 308 308 307 307 307 307 307 307 307 306 306 305 304 303 303 303 303 304 304 304 304 304 304 303 302 301 303 304 304 305 305 304 303
308 308 307 308 310 311 311 311 311 309 308 308 307 307 308 307 306 307 307 306 306 306 305 304 303 302 302 302 302 303 303 303 303 303 302 302 301 301 301 303 304 304 303
306 308 309 308 309 310 311 311 311 310 309 308 307 307 308 307 306 306 307 306 306 306 305 305 304 302 301 300 300 301 301 302 302 302 302 302 302 301 301 302 303 304 304
306 306 307 309 309 309 310 311 311 310 308 308 308 307 307 307 306 306 306 306 306 306 306 306 305 304 302 300 299 299 299 300 301 301 302 302 301 301 301 301 301 303 304
306 307 307 307 308 309 309 310 310 310 308 308 308 307 307 307 307 306 306 306 306 306 306 306 306 305 304 303 301 300 298 298 298 299 299 300 301 301 301 301 301 301 302
306 306 306 306 307 307 308 308 308 308 308 308 308 307 307 307 307 307 306 305 306 306 306 306 305 305 305 304 303 302 300 299 297 297 297 297 298 299 299 300 300 300 300
304 305 305 306 306 307 307 307 307 307 307 307 307 307 307 306 307 307 306 305 305 305 305 305 305 305 304 304 304 303 302 301 300 298 296 296 296 296 296 297 298 298 298
304 304 304 304 305 305 306 306 307 307 307 307 307 306 306 306 306 307 307 306 305 305 304 304 304 304 304 303 303 302 302 302 301 300 298 296 295 295 295 295 295 295 295
302 302 303 304 304 304 305 305 305 306 306 306 306 306 306 306 306 306 306 306 305 305 304 304 303 303 303 303 303 302 301 301 301 299 298 297 295 295 294 294 293 293 293
300 300 301 302 302 303 303 304 304 304 305 305 305 305 305 305 305 306 306 306 305 305 304 304 303 304 304 304 303 302 301 300 299 299 298 297 296 296 295 294 294 293 292
299 299 300 300 301 301 302 302 302 303 302 303 303 303 304 303 303 303 303 303 303 303 303 303 303 303 303 303 302 301 300 299 299 299 298 297 296 296 295 295 294 293 292
297 299 299 299 299 299 298 299 299 300 300 301 301 301 301 301 301 301 301 301 301 301 301 301 302 302 302 302 301 301 299 298 299 297 297 297 295 294 294 295 295 293 292
296 295 295 295 294 293 293 292 292 292 292 293 293 293 293 293 293 293 294 294 295 296 296 296 296 296 297 298 298 299 301 300 300 300 299 297 295 294 295 295 294 293 292
294 292 291 290 289 289 289 289 289 289 289 288 288 288 288 288 288 288 289 289 289 289 290 290 291 291 292 292 293 294 295 295 295 295 294 293 294 295 294 294 293 293 293
290 289 289 288 288 288 288 288 288 288 288 288 288 288 288 288 288 287 287 287 287 288 288 288 288 289 290 290 290 290 290 292 292 294 293 293 294 294 294 295 293 292 292
289 289 289 288 288 288 288 288 288 288 288 288 287 287 287 287 287 287 286 286 286 286 286 287 287 287 288 288 289 289 290 291 291 290 291 292 292 292 292 291 291 291 291
289 289 289 289 288 288 288 288 287 287 287 287 287 287 287 287 286 286 286 286 286 286 287 287 287 287 287 286 286 287 288 288 290 291 290 290 289 289 290 290 290 290 290
290 289 288 288 288 287 287 287 287 286 286 286 286 286 286 286 286 286 286 286 286 287 287 287 287 287 287 287 286 286 287 287 287 287 288 288 288 289 289 289 289 289 290
288 288 287 287 287 287 286 286 286 286 286 286 286 286 286 286 286 286 286 286 286 286 286 286 287 287 287 287 288 288 287 287 287 287 287 287 288 288 288 289 289 288 289
287 287 286 286 286 286 286 287 286 286 286 286 286 286 286 286 286 286 286 286 286 286 286 286 287 287 287 287 287 287 288 288 288 288 288 288 288 289 290 290 289 288 288
286 286 286 286 286 286 286 286 286 286 285 285 285 286 286 286 286 286 286 285 285 285 285 285 285 286 286 286 287 287 287 287 287 287 287 288 288 288 289 289 289 289 288
Wind_Speed
11 16 20 22 22 20 19 17 15 12 10 9 8 8 7 7 8 8 9 11 12 12 12 12 12 11 11 11 11 11 11 11 11 7 5 4 4 3 2 2 3 4 4
11 14 19 24 24 23 21 18 15 13 11 11 10 8 6 6 7 9 10 10 11 11 11 11 10 10 10 10 10 10 10 11 11 8 4 3 4 4 6 4 3 4 4
4 7 14 23 25 25 22 18 14 12 13 12 10 8 7 6 7 8 9 10 10 11 10 9 9 9 8 9 9 10 9 8 9 8 4 3 3 9 5 5 6 7 8
4 6 10 18 24 24 21 17 15 13 13 11 10 9 8 7 7 8 9 10 10 9 9 9 9 8 8 8 9 9 8 8 7 7 5 3 4 3 5 5 6 9 10
2 2 5 13 20 23 20 17 15 12 12 12 11 11 10 8 8 8 8 9 9 9 8 8 7 7 7 8 9 9 8 7 7 6 6 5 4 3 3 6 6 8 8
4 1 5 13 19 20 20 18 15 13 12 13 13 12 11 10 9 9 9 8 8 8 8 7 7 8 8 8 8 8 8 7 7 7 7 5 4 5 4 6 7 7 6
5 4 4 11 17 20 20 18 17 15 13 14 14 13 13 12 11 10 10 8 8 8 8 8 8 8 8 8 9 9 9 8 8 8 8 8 7 7 7 7 8 6 6
5 6 5 4 12 17 19 19 17 16 15 16 15 15 15 14 13 12 11 10 10 9 9 9 9 9 8 9 10 10 10 10 10 10 10 10 10 10 10 8 7 7 7
8 7 3 2 5 10 15 19 20 20 19 17 17 17 17 17 16 15 14 13 13 11 10 10 10 10 10 10 11 11 11 12 12 12 12 12 13 13 13 12 11 8 5
8 8 4 1 5 10 15 19 21 21 21 19 18 19 19 19 18 18 16 16 16 14 13 12 12 12 11 12 12 13 13 13 14 14 15 15 15 15 16 16 15 14 12
9 9 9 5 2 4 8 12 19 21 21 20 21 21 22 22 20 19 19 18 19 17 16 15 14 14 14 14 14 15 16 16 16 16 17 17 17 18 18 19 19 19 17
9 10 9 9 8 7 5 4 7 13 18 20 21 23 24 23 22 21 20 20 20 20 20 19 18 18 18 18 18 17 17 18 18 18 20 20 20 20 20 21 21 21 20
9 10 11 12 13 12 11 10 9 7 9 13 15 19 21 22 22 22 22 21 21 22 23 23 22 21 21 21 21 21 21 21 21 21 21 21 21 22 22 22 22 22 22
9 10 11 13 13 13 13 13 13 12 10 7 7 10 13 16 18 20 22 22 23 23 24 25 25 24 24 24 23 23 24 24 24 24 24 23 23 23 23 24 24 24 24
9 10 11 11 11 12 12 12 13 13 13 11 9 7 8 10 13 16 19 21 22 23 24 25 26 26 26 26 26 26 26 27 28 27 27 26 26 25 26 26 26 26 25
6 8 9 10 12 13 13 13 13 13 12 12 12 11 10 10 10 10 12 14 16 18 19 21 23 24 25 25 26 27 29 30 30 30 30 30 30 29 29 29 29 29 28
4 7 8 10 11 12 13 13 13 13 13 14 14 14 14 14 15 15 15 16 16 17 18 19 20 22 24 25 26 26 28 29 30 31 32 33 34 32 30 30 30 31 31
4 6 7 8 9 10 11 12 13 14 15 15 16 16 17 17 17 17 18 18 18 19 21 22 22 24 25 26 29 31 34 36 37 37 37 37 35 32 31 31 32 32 33
6 6 7 8 8 9 10 11 13 14 15 16 17 18 19 19 20 21 21 21 21 21 20 19 19 19 20 19 21 23 26 29 32 32 31 31 32 32 29 28 29 31 33
5 4 5 6 7 9 11 13 15 16 18 19 19 20 20 21 21 22 23 23 24 25 25 26 25 24 23 21 19 19 19 22 27 31 32 33 36 35 32 34 28 27 30
4 4 4 6 8 10 12 14 16 18 20 21 22 22 22 24 24 25 26 26 27 27 27 27 27 26 26 26 25 23 22 21 24 23 21 20 22 23 26 19 25 28 28
2 4 6 9 11 13 16 19 20 21 23 24 26 26 26 27 27 28 29 29 28 27 25 23 25 24 25 26 28 27 25 25 25 26 27 27 27 24 25 22 24 24 26
5 8 12 14 16 17 19 22 23 25 27 28 29 29 30 30 30 30 31 28 24 23 24 22 23 24 22 22 24 25 24 25 26 27 27 29 28 28 29 28 26 26 24
9 13 16 18 21 21 23 24 25 25 26 28 28 29 30 31 30 27 26 25 24 22 22 22 21 21 22 21 19 20 22 24 24 24 26 29 30 29 31 32 30 25 28
14 16 19 22 24 24 25 25 26 27 28 28 27 27 25 26 27 26 24 24 27 23 23 23 20 20 24 24 23 24 24 24 26 27 29 28 27 26 24 24 28 28 24
17 21 23 24 25 26 26 26 26 26 27 29 28 26 27 26 25 25 27 26 29 27 24 24 23 25 26 29 27 26 26 27 27 28 30 30 28 28 27 26 25 24 25
Wind_Direction
246 230 232 231 228 223 227 226 225 227 235 238 232 233 260 277 297 303 311 318 323 323 319 314 312 315 321 325 331 343 349 354 357 0 315 319 341 340 342 10 9 350 348
252 246 232 229 225 223 223 219 218 224 229 225 227 238 257 276 289 304 313 317 321 319 318 315 313 313 318 327 336 346 353 353 1 5 341 310 287 316 295 293 306 315 319
263 247 230 223 217 215 215 214 215 222 225 225 228 245 253 269 284 298 305 312 317 319 319 319 316 312 315 323 334 341 349 352 355 7 18 328 322 321 277 280 289 299 307
278 263 230 211 209 209 208 207 213 223 225 227 233 246 250 261 278 289 299 312 318 322 324 324 320 316 315 319 327 334 337 346 344 348 355 335 308 321 318 308 299 303 307
336 247 214 197 197 204 204 208 216 225 230 232 237 244 247 258 275 285 296 307 315 322 323 321 321 317 314 316 322 327 329 328 328 330 328 321 312 285 280 296 303 323 317
30 46 192 188 194 199 204 212 221 230 235 236 240 245 250 259 270 278 287 298 308 314 317 318 316 314 313 312 312 314 313 312 310 311 310 299 287 289 287 293 306 306 298
37 63 152 186 194 201 209 217 226 234 243 243 246 250 250 256 264 271 280 284 292 300 307 311 309 304 301 300 300 302 303 302 299 297 293 289 284 281 283 290 300 300 302
43 59 77 173 202 209 216 225 234 241 248 250 253 253 251 256 261 266 272 274 280 287 294 300 302 301 298 295 294 294 294 293 293 291 288 285 284 281 278 272 276 297 283
38 51 73 141 199 223 232 237 240 244 248 251 254 258 257 257 261 263 268 270 271 276 283 291 297 301 300 296 292 290 288 288 288 287 285 284 282 281 278 275 272 260 274
38 44 46 319 250 245 245 247 250 254 254 254 254 259 260 258 258 261 267 269 268 272 277 283 289 295 298 297 295 292 289 287 286 285 283 280 278 276 275 276 273 265 258
57 57 54 49 358 276 265 262 254 252 253 253 255 259 261 260 261 263 264 269 269 269 273 277 281 285 289 293 295 294 293 291 287 286 283 280 278 276 275 272 268 266 262
73 71 72 67 59 48 22 325 282 263 257 256 256 259 264 263 261 264 265 267 272 269 270 273 277 280 282 283 285 285 286 287 287 286 284 285 281 278 273 271 270 266 262
79 73 69 63 58 55 51 43 25 348 291 269 264 261 263 263 260 263 267 267 269 269 267 270 274 277 278 280 281 281 281 282 282 281 279 279 278 278 276 272 268 265 263
78 70 63 57 53 47 43 41 35 29 20 354 306 279 266 260 256 259 264 267 268 270 270 270 272 275 277 279 280 280 279 279 278 278 278 276 274 274 273 270 270 267 265
70 60 54 49 45 41 37 33 27 22 19 10 1 348 324 299 283 276 273 272 273 273 272 272 273 275 276 277 278 277 275 274 275 276 276 275 274 272 268 267 268 266 263
70 56 47 39 31 26 21 15 12 11 9 2 360 357 348 341 331 317 304 296 292 289 286 283 281 280 279 280 280 280 279 278 276 276 276 277 275 271 270 268 266 265 263
53 42 38 32 26 21 17 11 7 1 355 353 348 343 340 334 329 325 319 312 306 301 297 294 291 289 288 287 287 286 282 280 279 279 279 279 275 272 268 268 267 264 262
65 59 52 41 31 25 18 15 9 3 359 356 353 348 345 341 338 332 326 318 312 308 305 301 299 295 292 289 285 281 277 274 273 273 276 274 272 269 271 271 268 266 263
93 74 54 40 30 22 16 10 4 360 357 355 352 348 344 341 337 334 331 329 325 322 319 317 314 312 311 310 303 299 296 293 288 281 274 269 268 267 268 275 276 272 266
97 77 53 32 19 7 3 358 350 346 341 338 336 334 329 325 321 317 315 312 310 308 308 308 309 308 307 308 309 313 309 295 302 288 280 274 271 265 262 265 266 269 272
96 53 21 3 350 342 337 334 332 329 324 322 321 319 317 313 311 308 307 306 305 303 301 300 299 298 298 299 298 295 292 290 298 301 299 289 282 278 272 265 271 269 273
49 345 336 333 331 328 325 323 322 318 315 313 312 310 308 306 305 304 304 303 301 299 298 296 297 297 297 296 294 288 284 285 279 280 285 287 294 289 287 271 271 275 271
324 322 320 319 321 321 318 315 316 313 310 308 307 306 305 304 303 301 300 299 297 293 293 292 293 294 295 294 296 296 291 285 283 280 279 282 287 281 280 280 274 268 270
312 313 312 312 312 314 312 311 310 309 306 305 305 305 303 301 299 296 292 292 293 290 288 289 289 292 293 294 296 297 299 296 292 287 282 279 277 276 271 272 267 269 270
311 309 310 309 309 310 310 310 310 310 307 304 302 301 300 299 298 295 292 289 291 287 290 289 287 289 290 292 291 294 292 289 287 289 288 286 281 277 270 267 269 269 274
309 310 309 307 309 309 308 309 310 309 306 303 303 302 301 298 295 295 296 293 295 294 292 291 291 292 288 295 292 290 288 285 285 285 283 281 279 277 273 271 268 268 269